Regional Weather Roundup
Issued by NWS Newport/Morehead, NC

Current Version | Previous Version | Graphics & Text | Print | Product List | Glossary On
Versions: 1 2 3 4 5 6 7 8 9 10 11 12 13 14 15 16 17 18 19 20 21 22 23 24 25 26 27 28 29 30 31 32 33 34 35 36 37 38 39 40 41 42 43 44 45 46 47 48 49 50
000 ASUS42 KMHX 030510 RWRMHX WEATHER ROUNDUP FOR EASTERN NORTH CAROLINA NATIONAL WEATHER SERVICE NEWPORT/MOREHEAD CITY NC 100 AM EDT WED SEP 03 2014 NOTE: "FAIR" INDICATES FEW OR NO CLOUDS BELOW 12,000 FEET WITH NO SIGNIFICANT WEATHER AND/OR OBSTRUCTIONS TO VISIBILITY NCZ015>017-031-032-045>047-102-103-030600- NORTH COAST CITY SKY/WX TMP DP RH WIND PRES REMARKS EDENTON CLEAR 79 76 90 SW9 30.00S ELIZABETH CITY CLEAR 79 76 90 SW12 30.00R KITTY HAWK CLEAR 80 75 86 SW9G17 29.99S MANTEO CLEAR 78 75 90 SW10 30.01R $$ NCZ045>047-081-094-103-104-030600- CENTRAL COAST CITY SKY/WX TMP DP RH WIND PRES REMARKS FRISCO PTCLDY 80 77 90 SW15G23 30.03R SWANQUARTER N/A 81 N/A N/A SW13G18 29.97S $$ NCZ095-097-098-100-101-030600- SOUTHERN COAST CITY SKY/WX TMP DP RH WIND PRES REMARKS BEAUFORT PTCLDY 82 76 81 SW13 30.04R CEDAR ISLAND N/A 79 N/A N/A S8 30.06S JACKSONVILLE PTCLDY 77 74 90 SW6 30.03R NEWPORT NOT AVBL PINEY ISLAND CLEAR 81 78 91 SW7 30.02S WILMINGTON PTCLDY 79 75 87 SW7 30.03F $$ NCZ011>013-027>030-043-044-078>080-089-090>093-098-030600- COASTAL PLAIN CITY SKY/WX TMP DP RH WIND PRES REMARKS AHOSKIE CLEAR 74 70 86 CALM 30.00R CLINTON PTCLDY 78 77 96 SW6 30.03R ELIZABETHTOWN PTCLDY 78 76 94 S5 30.03S GOLDSBORO PTCLDY 78 77 98 S6 30.00S GREENVILLE CLEAR 77 75 94 SW6 30.03R HAVELOCK CLEAR 79 75 87 SW6 30.04S KENANSVILLE PTCLDY 77 74 91 CALM 30.04R KINSTON PTCLDY 78 75 90 SW8 30.02S NEW BERN PTCLDY 79 75 87 S7 30.03S RICHLANDS MOCLDY 77 72 83 SW8 30.04R ROANOKE RAPIDS NOT AVBL ROCKY MOUNT PTCLDY 74 71 91 SW5 30.01R WASHINGTON CLEAR 78 74 88 SW7 30.02R WHITEVILLE MOCLDY 78 75 91 SW3 30.04S $$ AMZ130-135-150-152-154-156-158-170-250-252-270-ANZ085-086-088-633-658-670-030600- MARINE OBSERVATIONS STATION/POSITION TIME TEMP WIND PRES WAVE SWELL AIR SEA DIR/SP/G HT/PER HT/PER (UTC) (F) (DEG/KT/KT) (MB) (FT/S) (FT/S) CHESAPEAKE LIGHT 0400 82 220/ 21/ 23 1014.4 BUOY 44014 0500 79 78 220/ 17/ 21 1014.2 3/ 5 2/ 9 DUCK 0500 81 75 220/ 13/ 19 1015.0 2E DUCK 0500 N/A 2/11 2/11 OREGON INLET 0500 81 85 220/ 17/ 21 1016.0 BUOY 44095 0500 80 N/A 3/ 4 2/13 20E OREGON INLET NOT AVBL HATTERAS CG 0500 81 84 220/ 11/ 17 1017.2 DIAMOND BUOY 0500 81 230/ 17/ 21 1016.5 4/ 4 2/10 CAPE LOOKOUT 0400 81 230/ 12/ 14 1017.1 BEAUFORT LAB 0500 82 84 230/ 7/ 12 1016.5 30 SE NEW RIVER 0500 82 82 240/ 14/ 16 1017.5 3/ 4 2/ 9 5 SE WRIGHTSVILL 0400 79 83 230/ 16/ 19 N/A BUOY 41002 0437 81 83 200/ 12/ 14 1019.3 3/ 9 2/ 9 BUOY 41004 0500 83 84 210/ 10/ 14 1017.2 3/ 8 2/ 8 $$

USA.gov is the U.S. government's official web portal to all federal, state and local government web resources and services.